Weather History for KBRO - February, 2013

Change the Weather History Date:

Sunday, February 24, 2013

  Actual Average Record
Temperature  
Mean Temperature 70 °F 66 °F  
Max Temperature 83 °F 75 °F 92 °F (1917)
Min Temperature 56 °F 56 °F 32 °F (1968)
Degree Days  
Heating Degree Days 0 3  
Month to date heating degree days 24 95  
Since 1 July heating degree days 280 494  
Cooling Degree Days 5 3  
Month to date cooling degree days 143 67  
Year to date cooling degree days 217 126  
Growing Degree Days 23 (Base 50)    
Moisture  
Dew Point 64 °F    
Average Humidity 78    
Maximum Humidity 100    
Minimum Humidity 55    
Precipitation  
Precipitation T in 0.03 in 2.72 in (1922)
Month to date precipitation 0.01 0.94  
Year to date precipitation 1.48 2.21  
Sea Level Pressure  
Sea Level Pressure 29.76 in    
Wind  
Wind Speed 8 mph (SE)    
Max Wind Speed 17 mph    
Max Gust Speed 21 mph    
Visibility 10 miles    
Events Rain    
T = Trace of Precipitation, MM = Missing Value Source: NWS Daily Summary

Daily Weather History Graph

Daily Weather History Graph

Search for Another Location

Airport or City:

Trip Planner

Search our weather history database for the weather conditions in past years. The results will help you decide how hot, cold, wet, or windy it might be!

Date:

Astronomy

Feb. 24, 2013 Rise Set
Actual Time 6:57 AM CST 6:28 PM CST
Civil Twilight 6:34 AM CST 6:51 PM CST
Nautical Twilight 6:07 AM CST 7:18 PM CST
Astronomical Twilight 5:40 AM CST 7:45 PM CST
Moon 5:40 PM CST (2/24) 5:53 AM CST (2/24)
Length of Visible Light 12h 17m
Length of Day
11h 31m
Waxing Gibbous, 99% of the Moon is Illuminated
Feb 24
Waxing Gibbous
Feb 25
Full
Mar 4
Last Quarter
Mar 11
New
Mar 19
First Quarter

Hourly Weather History & Observations

Time (CST) Temp. Heat Index Dew Point Humidity Pressure Visibility Wind Dir Wind Speed Gust Speed Precip Events Conditions
12:43 AM 57.2 °F - 55.4 °F 94% 29.91 in 9.0 mi East 3.5 mph - N/A   Mostly Cloudy
12:53 AM 57.9 °F - 57.0 °F 97% 29.90 in 9.0 mi Calm Calm - N/A   Mostly Cloudy
1:14 AM 57.2 °F - 57.2 °F 100% 29.90 in 8.0 mi East 3.5 mph - N/A   Mostly Cloudy
1:53 AM 62.1 °F - 60.1 °F 93% 29.89 in 10.0 mi East 4.6 mph - N/A   Overcast
2:53 AM 63.0 °F - 61.0 °F 93% 29.86 in 10.0 mi East 3.5 mph - N/A   Overcast
3:53 AM 64.0 °F - 60.1 °F 87% 29.84 in 10.0 mi East 5.8 mph - N/A   Overcast
4:53 AM 64.9 °F - 60.1 °F 84% 29.83 in 10.0 mi Calm Calm - N/A   Overcast
5:39 AM 64.4 °F - 60.8 °F 88% 29.82 in 10.0 mi Calm Calm - N/A   Overcast
5:53 AM 64.9 °F - 60.1 °F 84% 29.82 in 10.0 mi NE 4.6 mph - N/A   Overcast
6:53 AM 64.9 °F - 61.0 °F 87% 29.81 in 10.0 mi ENE 6.9 mph - N/A   Overcast
7:49 AM 66.2 °F - 62.6 °F 88% 29.81 in 10.0 mi ENE 9.2 mph - N/A   Scattered Clouds
7:53 AM 66.9 °F - 62.1 °F 84% 29.82 in 10.0 mi ENE 8.1 mph - N/A   Partly Cloudy
8:53 AM 71.1 °F - 64.0 °F 78% 29.82 in 10.0 mi East 12.7 mph - N/A   Clear
9:44 AM 75.2 °F - 66.2 °F 73% 29.83 in 10.0 mi ESE 11.5 mph - N/A   Mostly Cloudy
9:51 AM 73.4 °F - 64.4 °F 73% 29.83 in 10.0 mi ESE 11.5 mph 19.6 mph N/A   Scattered Clouds
9:53 AM 73.9 °F - 64.9 °F 73% 29.83 in 10.0 mi ESE 9.2 mph 19.6 mph N/A   Scattered Clouds
10:39 AM 73.4 °F - 66.2 °F 78% 29.83 in 10.0 mi ESE 11.5 mph - N/A   Mostly Cloudy
10:53 AM 73.9 °F - 66.0 °F 76% 29.82 in 10.0 mi SE 10.4 mph - N/A   Overcast
11:42 AM 75.2 °F - 68.0 °F 78% 29.80 in 10.0 mi SE 10.4 mph - N/A   Overcast
11:53 AM 75.0 °F - 68.0 °F 79% 29.79 in 10.0 mi SE 13.8 mph - N/A   Overcast
12:41 PM 73.4 °F - 69.8 °F 88% 29.76 in 10.0 mi South 10.4 mph - 0.00 in Rain Light Rain
12:53 PM 75.0 °F - 69.1 °F 82% 29.76 in 10.0 mi SSE 8.1 mph - 0.00 in   Overcast
1:31 PM 78.8 °F - 66.2 °F 65% 29.73 in 10.0 mi South 10.4 mph - N/A   Overcast
1:53 PM 80.1 °F 82.9 °F 69.1 °F 69% 29.71 in 10.0 mi SE 11.5 mph - N/A   Overcast
2:00 PM 80.6 °F 83.2 °F 68.0 °F 65% 29.71 in 10.0 mi SE 10.4 mph - N/A   Mostly Cloudy
2:53 PM 82.9 °F 85.0 °F 66.0 °F 56% 29.66 in 10.0 mi SE 6.9 mph 17.3 mph N/A   Mostly Cloudy
3:53 PM 82.0 °F 83.8 °F 64.9 °F 56% 29.65 in 10.0 mi SSE 8.1 mph - N/A   Mostly Cloudy
4:53 PM 80.1 °F 81.7 °F 64.0 °F 58% 29.65 in 10.0 mi SSE 13.8 mph - N/A   Partly Cloudy
5:53 PM 77.0 °F - 64.0 °F 64% 29.65 in 10.0 mi SSE 13.8 mph - N/A   Clear
6:53 PM 71.1 °F - 64.0 °F 78% 29.66 in 10.0 mi SSE 8.1 mph - N/A   Clear
7:53 PM 70.0 °F - 64.0 °F 81% 29.68 in 10.0 mi SE 3.5 mph - N/A   Clear
8:53 PM 69.1 °F - 66.0 °F 90% 29.66 in 10.0 mi SE 8.1 mph - N/A   Clear
9:53 PM 68.0 °F - 66.0 °F 93% 29.67 in 10.0 mi SSE 8.1 mph - N/A   Clear
10:53 PM 69.1 °F - 66.9 °F 93% 29.65 in 8.0 mi SSE 9.2 mph - N/A   Clear
11:03 PM 69.8 °F - 68.0 °F 94% 29.65 in 8.0 mi SSE 11.5 mph - N/A   Scattered Clouds
11:19 PM 69.8 °F - 68.0 °F 94% 29.64 in 8.0 mi SSE 10.4 mph - N/A   Mostly Cloudy
11:53 PM 71.1 °F - 70.0 °F 96% 29.63 in 7.0 mi SSE 11.5 mph - N/A   Overcast